#timestamp,LO_Frequency,Hit,StdDev 
1656046815.2,286047000.1,N
1656046835.0,286047002.4,N
1656046835.9,286047002.4,N
1656046855.8,286047001.9,N
1656046875.6,286046999.8,N
1656046895.4,286047002.8,N
1656046915.3,286047002.4,N
1656046935.1,286047000.2,N
1656046955.8,286047000.0,N
1656046975.7,286047000.0,N
1656046995.5,286047000.3,N
1656047015.4,286047000.0,N
1656047035.2,286047000.1,N
1656047055.0,286047000.1,N
1656047055.9,286047000.1,N
1656047075.8,286047000.6,N
1656047095.6,286047001.0,N
1656047115.4,286047000.3,N
1656047135.3,286047000.0,N
1656047155.1,286047000.5,N
1656047175.9,286047001.0,N
1656047195.7,286047000.2,N
1656047215.5,286046999.8,N
1656047235.4,286047000.0,N
1656047255.2,286047000.1,N
1656047275.0,286046999.9,N
1656047275.9,286046999.9,N
1656047295.8,286047000.3,N
1656047315.6,286047002.7,Y
1656047335.5,286047000.1,P
1656047355.3,286047002.3,P
1656047375.1,286047002.2,N
1656047395.9,286047001.4,N
1656047415.7,286047004.1,Y
1656047435.6,286047002.1,P
1656047455.4,286047002.1,P
1656047475.2,286047002.8,P
1656047495.1,286047000.4,N
1656047496.0,286047000.4,N
1656047515.8,286047000.7,N
1656047535.6,286046998.2,N
1656047555.5,286046998.8,N
1656047575.3,286047001.2,N
1656047595.2,286046999.4,N
1656047615.9,286046996.5,N
1656047635.7,286046996.6,N
1656047655.6,286046999.3,N
1656047675.4,286046996.5,N
1656047695.2,286046996.5,N
1656047715.1,286046996.5,N
1656047716.0,286046996.5,N
1656047735.8,286046996.7,N
1656047755.7,286046996.8,N
1656047775.5,286046996.9,N
1656047795.3,286046996.8,N
1656047815.2,286046999.2,N
1656047835.0,286046999.6,N
1656047835.9,286046999.6,N
1656047855.8,286046998.9,N
1656047875.6,286046996.5,N
1656047895.4,286046996.5,N
1656047915.3,286046999.0,N
1656047935.1,286046996.9,N
1656047955.8,286046996.7,N
1656047975.7,286046996.7,N
1656047995.5,286046997.2,N
1656048015.4,286046999.6,N
1656048035.2,286046999.2,N
1656048055.0,286046997.1,N
1656048055.9,286046997.1,N
1656048075.8,286046999.6,N
1656048095.6,286046999.4,N
1656048115.4,286046998.4,N
1656048135.3,286046998.1,N
1656048155.1,286046998.4,N
1656048175.9,286046998.5,N
1656048195.7,286046999.3,N
1656048215.5,286046998.8,N
1656048235.4,286046998.8,N
1656048255.2,286046998.4,N
1656048275.0,286046998.8,N
1656048275.9,286046998.8,N
1656048295.8,286047001.0,N
1656048315.6,286046999.3,N
1656048335.5,286046999.6,N
1656048355.3,286046997.1,N
1656048375.1,286046999.1,N
1656048395.9,286046996.8,N
1656048415.7,286046997.1,N
1656048435.6,286046995.2,Y
1656048455.4,286046999.2,P
1656048475.2,286046998.7,N
1656048495.1,286046999.2,N
1656048496.0,286046999.2,N
1656048515.8,286046997.0,Y
1656048535.6,286046998.1,P
1656048555.5,286046996.9,P
1656048575.3,286046999.2,N
1656048595.2,286046998.9,N
1656048615.0,286046998.4,N
1656048615.9,286046998.4,N
1656048635.7,286046997.2,Y
1656048655.6,286047001.2,P
1656048675.4,286047001.0,N
1656048695.7,286046998.6,N
1656048715.5,286046998.6,N
1656048735.4,286046998.6,N
1656048755.2,286046998.3,N
1656048775.0,286047000.7,N
1656048775.9,286047000.7,N
1656048795.8,286047000.4,N
1656048815.6,286047000.9,N
1656048835.5,286047000.8,N
1656048855.3,286047001.1,N
1656048875.1,286047000.4,N
1656048895.9,286047000.9,N
1656048915.7,286047000.6,N
1656048965.6,286047001.2,E
1656048975.5,286047000.0,N
1656048995.3,286047000.7,P
1656049015.2,286047000.6,N
1656049035.3,286046998.1,Y
1656049055.1,286046996.6,P
1656049075.8,286046998.9,N
1656049095.7,286046998.8,N
1656049115.5,286046998.6,N
1656049135.4,286046998.9,N
1656049155.2,286046997.0,N
1656049175.0,286046996.9,N
1656049175.9,286046996.9,N
1656049195.8,286046996.9,N
1656049215.6,286046997.5,N
1656049235.5,286046997.3,N
1656049255.3,286046997.3,N
1656049275.1,286046996.8,N
1656049295.9,286046997.3,N
1656049315.7,286046997.6,N
1656049335.5,286046997.4,N
1656049355.4,286046996.8,Y
1656049375.2,286047000.7,P
1656049395.1,286047000.8,N
1656049396.0,286047000.8,N
1656049415.8,286047001.0,N
1656049435.6,286046998.6,N
1656049455.5,286046998.1,N
1656049475.3,286046998.6,N
1656049495.2,286047000.8,N
1656049515.9,286046998.6,N
1656049535.7,286046998.5,N
1656049555.6,286046998.4,N
1656049575.4,286046998.2,N
1656049595.2,286047000.7,N
1656049615.1,286047001.1,N
1656049616.0,286047001.1,N
1656049635.8,286047001.1,N
1656049655.7,286046998.1,N
1656049675.5,286047000.4,N
1656049695.3,286047001.2,N
1656049715.2,286046998.5,N
1656049735.0,286047001.2,N
1656049735.9,286047001.2,N
1656049755.7,286047000.7,N
1656049775.6,286046998.4,N
1656049795.4,286046998.2,N
1656049815.3,286047001.1,N
1656049835.1,286047001.0,N
1656049836.0,286047001.0,N
1656049855.8,286047000.9,N
1656049875.7,286047000.5,N
1656049895.5,286047000.7,N
1656049915.3,286047000.6,N
1656049935.2,286047001.1,N
1656049955.0,286046998.5,N
1656049955.9,286046998.5,N
1656049975.8,286046997.0,N
1656049995.6,286046999.6,N
1656050015.4,286046997.1,N
1656050035.3,286046996.8,N
1656050055.1,286046996.9,N
1656050075.8,286046999.5,N
1656050095.7,286046999.5,N
1656050115.5,286046999.4,N
1656050135.4,286046996.9,N
1656050155.2,286046996.5,N
1656050175.0,286046997.7,N
1656050175.9,286046997.7,N
1656050195.8,286046996.8,N
1656050215.6,286046999.2,N
1656050235.5,286046998.7,N
1656050255.3,286046998.4,N
1656050275.1,286046998.6,N
1656050295.9,286046999.5,N
1656050315.7,286046996.6,N
1656050335.5,286046998.4,N
1656050355.4,286046998.8,N
1656050375.2,286046998.3,N
1656050395.1,286046998.2,N
1656050396.0,286046998.2,N
